[[{"header":{"parameterUnit":"m.s-1","parameterCategory":1,"la1":30.2991,"la2":30.254,"lo1":-89.0895,"lo2":-89.0444,"dy":0.0017,"dx":0.0017,"nx":28,"ny":28,"refTime":"2025-07-23T09:00:00:Z","depth":0,"parameterNumber":2,"parameterNumberName":"U-component_of_WINDS"},"data":[0,0,0,0,0,0,0,0,0,0,0,0,0,0,0,0,0,0,0,0,0,0,0,0,0,0,0,0,0,0,0,0,0,0,0,0,0,0,0,0,0,0,0,0,0,0,0,0,0,0,0,0,0,0,0,0,0,0,-5.432,-5.4319,0,-5.4273,-5.4273,-5.4272,-5.4101,-5.4097,-5.4093,-5.4089,-5.4043,-5.4045,-5.4047,0,0,0,0,0,0,0,0,0,0,0,0,0,-5.4264,-5.4266,-5.432,-5.4319,-5.4319,-5.4273,-5.4273,-5.4272,-5.4102,-5.4097,-5.4092,-5.4088,-5.4042,-5.4045,-5.4048,0,0,0,0,0,0,0,0,0,0,0,0,0,-5.426,-5.4266,-5.432,-5.4228,-5.4219,-5.4274,-5.4273,-5.4272,-5.4103,-5.4097,-5.4091,-5.4085,-5.4041,-5.4045,-5.4048,-5.4187,0,0,-5.4059,-5.4061,0,0,0,0,0,0,0,0,-5.426,-5.4262,-5.4242,-5.4235,-5.4225,-5.4187,-5.4236,-5.4244,-5.4104,-5.4147,-5.4089,-5.4083,-5.4096,-5.4094,-5.4098,-5.4185,-5.4183,-5.4059,-5.4062,-5.4063,-5.4064,0,0,0,0,0,0,0,-5.4261,-5.4263,-5.4301,-5.4242,-5.4232,-5.419,-5.4183,-5.4236,-5.4155,-5.4143,-5.413,-5.4127,-5.409,-5.4095,-5.4096,-5.4182,-5.4059,-5.4062,-5.4065,-5.4066,-5.4383,-5.4389,0,0,0,0,0,0,-5.4274,-5.4265,-5.4303,-5.43,-5.4229,-5.4196,-5.4188,-5.4205,-5.4154,-5.414,-5.4132,-5.4119,-5.4092,-5.4092,-5.4094,-5.4253,-5.4063,-5.4066,-5.4068,-5.4377,-5.4384,-5.4391,0,0,0,0,0,0,-5.4273,-5.4279,-5.4305,-5.4279,-5.4279,-5.4203,-5.4224,-5.4207,-5.4212,-5.4146,-5.413,-5.4153,-5.4087,-5.4089,-5.4166,-5.4249,-5.4068,-5.4071,-5.4369,-5.4379,-5.4388,-5.4573,0,0,0,0,0,0,-5.4273,-5.428,-5.4331,-5.4281,-5.4281,-5.4377,-5.4229,-5.4211,-5.4219,-5.4202,-5.4161,-5.4148,-5.4083,-5.4161,-5.4169,-5.4251,-5.4074,-5.4361,-5.4374,-5.4385,-5.4559,-5.4588,-5.4612,0,0,0,0,0,-5.4271,-5.4385,-5.4334,-5.434,-5.4343,-5.4382,-5.4382,-5.4304,-5.4227,-5.4278,-5.4235,-5.415,-5.424,-5.417,-5.4178,-5.4262,-5.4356,-5.437,-5.4384,-5.4547,-5.4582,-5.4612,0,0,0,0,0,0,-5.4445,-5.4376,-5.4319,-5.442,-5.4409,-5.4353,-5.4414,-5.4343,-5.4353,-5.4336,-5.424,-5.4232,-5.4323,-5.43,-5.4225,-5.4395,-5.4283,-5.43,-5.4405,-5.4438,-5.4464,-5.4466,-5.4077,0,0,0,0,0,-5.4496,-5.4532,-5.447,-5.4566,-5.4563,-5.4491,-5.4505,-5.4446,-5.443,-5.4423,-5.4386,-5.4374,-5.44,-5.4418,-5.4438,-5.4557,-5.4546,-5.4619,-5.4645,-5.4668,-5.4682,-5.4744,-5.4775,-5.4437,-5.4437,-5.4437,0,0,-5.4599,-5.4566,-5.4595,-5.46,-5.4583,-5.4624,-5.4487,-5.4535,-5.4565,-5.4431,-5.45,-5.4474,-5.4454,-5.4553,-5.4595,-5.4537,-5.4773,-5.4686,-5.4704,-5.4705,-5.4761,-5.4793,-5.4822,-5.4447,-5.4445,-5.4444,0,0,-5.4808,-5.4788,-5.4864,-5.4852,-5.483,-5.4782,-5.4801,-5.4757,-5.4734,-5.4803,-5.4704,-5.4739,-5.4785,-5.4775,-5.4776,-5.4987,-5.4909,-5.4997,-5.5134,-5.5195,-5.5222,-5.5245,-5.5319,-5.5347,-5.5012,-5.5012,-5.5013,0,-5.4939,-5.4995,-5.4913,-5.4968,-5.4974,-5.4857,-5.4935,-5.4927,-5.4913,-5.4919,-5.4856,-5.4912,-5.4891,-5.4986,-5.5038,-5.5043,-5.5062,-5.4999,-5.5225,-5.5247,-5.5268,-5.5337,-5.5366,-5.5023,-5.5022,-5.5021,-5.502,0,-5.5158,-5.5199,-5.5265,-5.5254,-5.5268,-5.5335,-5.5263,-5.5287,-5.523,-5.519,-5.5263,-5.5234,-5.5246,-5.5265,-5.5209,-5.5353,-5.5318,-5.5242,-5.5127,-5.5312,-5.5376,-5.5402,-5.5038,-5.5035,-5.5031,-5.5029,0,0,-5.5468,-5.5416,-5.5441,-5.5435,-5.5405,-5.5436,-5.5499,-5.5511,-5.5534,-5.553,-5.558,-5.5624,-5.5553,-5.5555,-5.5498,-5.5553,-5.5721,-5.5469,-5.5467,-5.5515,-5.5878,-5.5934,-5.5966,-5.5671,-5.5676,-5.568,-5.5879,0,-5.5666,-5.5768,-5.5699,-5.5813,-5.5851,-5.5743,-5.5798,-5.5787,-5.5752,-5.578,-5.5742,-5.5774,-5.5679,-5.568,-5.5729,-5.569,-5.5792,-5.5675,-5.5716,-5.5718,-5.5721,-5.6,-5.6058,-5.6247,-5.5904,-5.5908,-5.5911,0,-5.5907,-5.5915,-5.6034,-5.5998,-5.6011,-5.6062,-5.6069,-5.6097,-5.6083,-5.6054,-5.6059,-5.5989,-5.6049,-5.594,-5.6022,-5.5944,-5.5958,-5.5942,-5.5947,-5.5945,-5.5823,-5.6003,-5.6306,-5.6333,-5.595,-5.5947,-5.5944,0,-5.612,-5.6161,-5.6237,-5.6236,-5.6197,-5.6235,-5.6221,-5.6201,-5.6214,-5.6221,-5.6229,-5.6244,-5.6251,-5.6265,-5.6201,-5.6128,-5.6292,-5.6177,-5.6269,-5.6271,-5.6305,-5.6303,-5.6612,-5.632,-5.6319,-5.6319,-5.6318,0,-5.6344,-5.6421,-5.6332,-5.6379,-5.6462,-5.6384,-5.6469,-5.6443,-5.6427,-5.6468,-5.6377,-5.6417,-5.6332,-5.6364,-5.6316,-5.6391,-5.6396,-5.6374,-5.6359,-5.638,-5.6383,-5.6384,-5.6368,-5.6326,-5.6325,-5.6323,-5.6322,0,-5.6593,-5.6537,-5.6613,-5.6572,-5.6563,-5.6627,-5.6591,-5.6633,-5.6595,-5.6648,-5.6656,-5.6596,-5.6629,-5.6568,-5.6594,-5.6561,-5.6666,-5.6633,-5.6671,-5.666,-5.6754,-5.6745,-5.7072,-5.7111,-5.6798,-5.6801,-5.6803,0,-5.6738,-5.6795,-5.6761,-5.6782,-5.6773,-5.6808,-5.6821,-5.6748,-5.6766,-5.6757,-5.6801,-5.6827,-5.6843,-5.6902,-5.6861,-5.6881,-5.6845,-5.6959,-5.6847,-5.6867,-5.6844,-5.684,-5.6845,-5.698,-5.6984,-5.6987,-5.699,0,-5.7001,-5.6972,-5.6994,-5.701,-5.7029,-5.7037,-5.7039,-5.7062,-5.6984,-5.701,-5.7043,-5.7057,-5.7084,-5.7112,-5.7122,-5.7108,-5.7037,-5.7027,-5.7048,-5.7068,-5.7087,-5.7076,-5.673,-5.7018,-5.7015,-5.7013,-5.7012,-5.701,-5.72,-5.7246,-5.723,-5.7259,-5.7254,-5.7259,-5.7297,-5.7265,-5.7292,-5.7308,-5.7265,-5.7309,-5.7297,-5.7304,-5.7298,-5.7332,-5.7281,-5.7314,-5.7321,-5.7329,-5.7343,-5.7085,-5.7334,-5.7333,-5.7333,-5.7332,-5.7331,0,-5.7456,-5.7441,-5.747,-5.7476,-5.7501,-5.7435,-5.7434,-5.7459,-5.7499,-5.7494,-5.7513,-5.7554,-5.7581,-5.7544,-5.7565,-5.76,-5.7568,-5.7608,-5.7602,-5.76,-5.7388,-5.7366,-5.7633,-5.7633,-5.7633,-5.7633,-5.7633,-5.7633,-5.7591,-5.7665,-5.7636,-5.7707,-5.7692,-5.7736,-5.7741,-5.7746,-5.7741,-5.779,-5.7813,-5.779,-5.7773,-5.7792,-5.7815,-5.7804,-5.7814,-5.7866,-5.7843,-5.7645,-5.7615,-5.7587,-5.7565,-5.7869,-5.787,-5.8051,-5.8053,-5.8054]},{"header":{"parameterUnit":"m.s-1","parameterCategory":1,"la1":30.2991,"la2":30.254,"lo1":-89.0895,"lo2":-89.0444,"dy":0.0017,"dx":0.0017,"nx":28,"ny":28,"refTime":"2025-07-23T09:00:00:Z","depth":0,"parameterNumber":3,"parameterNumberName":"V-component_of_WINDS"},"data":[0,0,0,0,0,0,0,0,0,0,0,0,0,0,0,0,0,0,0,0,0,0,0,0,0,0,0,0,0,0,0,0,0,0,0,0,0,0,0,0,0,0,0,0,0,0,0,0,0,0,0,0,0,0,0,0,0,0,0.1133,0.1131,0,0.0977,0.0975,0.0973,0.0905,0.0906,0.0906,0.0906,0.0734,0.0729,0.0724,0,0,0,0,0,0,0,0,0,0,0,0,0,0.1365,0.1361,0.1133,0.1131,0.1129,0.0977,0.0975,0.0972,0.0905,0.0906,0.0906,0.0906,0.0736,0.073,0.0724,0,0,0,0,0,0,0,0,0,0,0,0,0,0.1241,0.1359,0.1133,0.1078,0.1071,0.0977,0.0975,0.0972,0.0905,0.0906,0.0906,0.0907,0.0737,0.073,0.0723,0.0669,0,0,0.0701,0.0698,0,0,0,0,0,0,0,0,0.1248,0.1233,0.1088,0.1081,0.1074,0.0961,0.0993,0.087,0.0905,0.0968,0.0906,0.0907,0.0808,0.0795,0.0765,0.0661,0.0654,0.07,0.0696,0.0693,0.0691,0,0,0,0,0,0,0,0.1257,0.1239,0.1071,0.1086,0.1077,0.1057,0.104,0.0969,0.0887,0.0962,0.0957,0.094,0.0805,0.0772,0.076,0.0651,0.07,0.0694,0.0689,0.0687,0.0497,0.0496,0,0,0,0,0,0,0.1276,0.1247,0.1076,0.1066,0.1165,0.1053,0.1034,0.0997,0.0888,0.0872,0.094,0.0938,0.0784,0.0769,0.0754,0.0684,0.0693,0.0686,0.0682,0.0498,0.0497,0.0496,0,0,0,0,0,0,0.1282,0.1262,0.1082,0.1155,0.1131,0.1049,0.1007,0.0993,0.0961,0.0871,0.0855,0.0922,0.0784,0.0764,0.0692,0.0677,0.0683,0.0676,0.0498,0.0497,0.0497,0.0545,0,0,0,0,0,0,0.1288,0.1264,0.1245,0.1155,0.1127,0.1026,0.1006,0.099,0.095,0.0945,0.085,0.0835,0.0783,0.0703,0.0685,0.0667,0.067,0.0499,0.0498,0.0497,0.0544,0.0545,0.0547,0,0,0,0,0,0.1297,0.1261,0.1244,0.1224,0.1102,0.1025,0.1009,0.0953,0.0949,0.0927,0.087,0.0838,0.0683,0.0696,0.0675,0.0655,0.05,0.0498,0.0497,0.0543,0.0545,0.0547,0,0,0,0,0,0,0.1345,0.1248,0.1228,0.1163,0.1104,0.1014,0.0985,0.0956,0.0893,0.0891,0.0821,0.08,0.0734,0.0687,0.0705,0.0598,0.0588,0.0583,0.0631,0.0632,0.0633,0.0645,0.0664,0,0,0,0,0,0.135,0.1299,0.1215,0.1166,0.1138,0.1067,0.1031,0.0995,0.0928,0.0901,0.0838,0.0772,0.0709,0.0668,0.0604,0.0538,0.0515,0.0513,0.0515,0.0516,0.0511,0.0473,0.0471,0.0491,0.0491,0.0491,0,0,0.1355,0.1296,0.1267,0.1174,0.1124,0.107,0.1046,0.0989,0.0948,0.0891,0.0821,0.0773,0.0694,0.0626,0.0592,0.0584,0.0502,0.0515,0.0517,0.051,0.0472,0.047,0.0468,0.049,0.049,0.0491,0,0,0.1339,0.129,0.1244,0.1196,0.1122,0.1076,0.1065,0.0981,0.0948,0.0878,0.0835,0.0783,0.0675,0.0621,0.058,0.0548,0.0515,0.0529,0.0535,0.0499,0.0497,0.0495,0.0484,0.048,0.0525,0.0525,0.0525,0,0.1354,0.1276,0.1223,0.1171,0.1131,0.1083,0.1035,0.0988,0.0896,0.0868,0.0862,0.0728,0.0671,0.059,0.0583,0.0551,0.0535,0.0538,0.0503,0.05,0.0497,0.0485,0.0481,0.0527,0.0527,0.0526,0.0526,0,0.1298,0.1244,0.1216,0.1134,0.109,0.104,0.0978,0.094,0.0908,0.0862,0.079,0.0722,0.0645,0.0623,0.0588,0.0536,0.0534,0.0517,0.0505,0.0499,0.0486,0.0481,0.053,0.0529,0.0528,0.0528,0,0,0.1303,0.1197,0.1187,0.115,0.1067,0.1023,0.0971,0.09,0.0869,0.0807,0.076,0.0672,0.0656,0.0609,0.0569,0.0538,0.0517,0.0523,0.052,0.0524,0.0456,0.0469,0.0465,0.0497,0.0495,0.0494,0.0462,0,0.1275,0.1184,0.1137,0.1064,0.1014,0.0969,0.0923,0.0866,0.0823,0.0771,0.0721,0.066,0.0644,0.0616,0.0583,0.0527,0.0502,0.0529,0.0449,0.0447,0.0469,0.0458,0.0471,0.0443,0.0457,0.0456,0.0455,0,0.1228,0.1174,0.1098,0.1024,0.1,0.0961,0.0893,0.0845,0.0779,0.075,0.0701,0.0662,0.0603,0.0599,0.0515,0.0534,0.0499,0.0467,0.0465,0.0453,0.045,0.0445,0.0433,0.0429,0.0447,0.0448,0.0448,0,0.124,0.1146,0.1089,0.1059,0.0971,0.0944,0.0906,0.0841,0.0802,0.0742,0.0716,0.0649,0.0611,0.0558,0.0502,0.0504,0.0424,0.0414,0.0395,0.0397,0.0378,0.038,0.036,0.0358,0.0359,0.0359,0.0359,0,0.1212,0.1167,0.1094,0.1059,0.1007,0.0953,0.0902,0.0859,0.0803,0.0756,0.0713,0.0669,0.0599,0.0546,0.0501,0.0439,0.0422,0.0394,0.0382,0.0397,0.0401,0.0372,0.0371,0.0357,0.0358,0.0358,0.0358,0,0.1214,0.1164,0.1099,0.1024,0.1004,0.0969,0.0902,0.0865,0.0822,0.0764,0.0747,0.0676,0.0612,0.0553,0.0465,0.0435,0.0372,0.0357,0.0396,0.0389,0.0374,0.0376,0.0332,0.0324,0.033,0.033,0.033,0,0.1199,0.1164,0.1087,0.1056,0.102,0.0968,0.0931,0.0877,0.0838,0.0763,0.0735,0.0669,0.0613,0.0513,0.0451,0.0385,0.0367,0.0357,0.0356,0.0373,0.0366,0.0368,0.0364,0.0357,0.0357,0.0358,0.0358,0,0.1176,0.1155,0.1104,0.1046,0.1004,0.0954,0.0902,0.0878,0.0813,0.0772,0.071,0.0667,0.0582,0.0516,0.0444,0.0399,0.0367,0.036,0.0351,0.0365,0.0389,0.0375,0.0398,0.036,0.0359,0.0359,0.0359,0.0359,0.1168,0.1136,0.1079,0.1024,0.0981,0.0935,0.0898,0.0852,0.08,0.073,0.0701,0.0637,0.0573,0.0473,0.043,0.0377,0.037,0.0358,0.0355,0.0352,0.0356,0.04,0.0364,0.0364,0.0364,0.0363,0.0363,0,0.1143,0.1105,0.1057,0.0989,0.0946,0.0926,0.0869,0.0833,0.0779,0.0725,0.0673,0.0601,0.0539,0.0475,0.0408,0.0378,0.0362,0.0362,0.0363,0.0353,0.0366,0.038,0.0377,0.0377,0.0377,0.0377,0.0377,0.0377,0.1125,0.1071,0.1043,0.0966,0.0927,0.0869,0.0838,0.0794,0.0751,0.0675,0.0625,0.0586,0.0527,0.0457,0.0398,0.038,0.0357,0.0362,0.034,0.0353,0.0352,0.0351,0.0364,0.0357,0.0357,0.0331,0.0331,0.0331]}]]